• In Romania
  • List of Countries
  • For 7 days
  • Water Temperature
  • Satellite Maps
  • Weather Map
  • Weather Widgets
  • user-avatar
    Login

    Hourly Weather Canillo

    Today, 30 April, Sunday

    Time Temperature Precipitation Wind Pressure Humidity
    00:00 -1°C° 0 mm 2 mps 613 mmHg 91%
    01:00 -1°C° 0 mm 2 mps 613 mmHg 91%
    02:00 -1°C° 0 mm 2 mps 612 mmHg 91%
    03:00 -2°C° 0 mm 2 mps 612 mmHg 91%
    04:00 -1°C° 0 mm 2 mps 612 mmHg 88%
    05:00 +1°C° 0 mm 2 mps 612 mmHg 86%
    06:00 +1°C° 0 mm 2 mps 612 mmHg 84%
    07:00 +2°C° 0 mm 3 mps 613 mmHg 77%
    08:00 +4°C° 0 mm 3 mps 614 mmHg 69%
    09:00 +7°C° 0 mm 3 mps 614 mmHg 62%
    10:00 +7°C° 0.1 mm 4 mps 614 mmHg 58%
    11:00 +8°C° 0.1 mm 4 mps 614 mmHg 53%
    12:00 +10°C° 0.1 mm 4 mps 614 mmHg 48%
    13:00 +10°C° 0.5 mm 4 mps 614 mmHg 56%
    14:00 +8°C° 0.5 mm 4 mps 613 mmHg 65%
    15:00 +7°C° 0.5 mm 4 mps 613 mmHg 73%
    16:00 +5°C° 0.6 mm 4 mps 613 mmHg 79%
    17:00 +3°C° 0.6 mm 3 mps 612 mmHg 86%
    18:00 +1°C° 0.6 mm 3 mps 612 mmHg 93%
    19:00 +1°C° 0.3 mm 2 mps 612 mmHg 94%
    20:00 -1°C° 0.3 mm 2 mps 613 mmHg 94%
    21:00 +1°C° 0.3 mm 1 mps 613 mmHg 95%
    22:00 0°C° 0.2 mm 1 mps 613 mmHg 94%
    23:00 -1°C° 0.2 mm 1 mps 613 mmHg 93%

    Tomorrow, 1 May, Monday

    Time Temperature Precipitation Wind Pressure Humidity
    00:00 -1°C° 0.2 mm 1 mps 613 mmHg 93%
    01:00 -2°C° 0.1 mm 1 mps 613 mmHg 93%
    02:00 -2°C° 0.1 mm 1 mps 614 mmHg 92%
    03:00 -4°C° 0.1 mm 2 mps 614 mmHg 92%
    04:00 -4°C° 0 mm 2 mps 614 mmHg 90%
    05:00 -4°C° 0 mm 2 mps 615 mmHg 87%
    06:00 -4°C° 0 mm 2 mps 615 mmHg 85%
    07:00 -2°C° 0 mm 2 mps 616 mmHg 75%
    08:00 +1°C° 0 mm 2 mps 618 mmHg 66%
    09:00 +3°C° 0 mm 2 mps 619 mmHg 56%
    10:00 +4°C° 0 mm 2 mps 619 mmHg 54%
    11:00 +5°C° 0 mm 2 mps 619 mmHg 52%
    12:00 +6°C° 0 mm 2 mps 620 mmHg 50%
    13:00 +6°C° 0.1 mm 2 mps 619 mmHg 52%
    14:00 +5°C° 0.1 mm 2 mps 619 mmHg 55%
    15:00 +5°C° 0.1 mm 2 mps 619 mmHg 58%
    16:00 +5°C° 0 mm 2 mps 619 mmHg 62%
    17:00 +4°C° 0 mm 2 mps 619 mmHg 66%
    18:00 +5°C° 0 mm 1 mps 619 mmHg 70%
    19:00 +3°C° 0 mm 1 mps 618 mmHg 77%
    20:00 +1°C° 0 mm 1 mps 618 mmHg 83%
    21:00 0°C° 0 mm 1 mps 617 mmHg 89%
    22:00 -1°C° 0 mm 1 mps 617 mmHg 89%
    23:00 -1°C° 0 mm 1 mps 617 mmHg 89%

    Day after tomorrow, 2 May, Tuesday

    Time Temperature Precipitation Wind Pressure Humidity
    00:00 -1°C° 0 mm 1 mps 617 mmHg 90%
    01:00 -1°C° 0 mm 1 mps 617 mmHg 89%
    02:00 -1°C° 0 mm 1 mps 617 mmHg 88%
    03:00 -1°C° 0 mm 1 mps 616 mmHg 87%
    04:00 +1°C° 0.1 mm 1 mps 617 mmHg 83%
    05:00 +2°C° 0.1 mm 1 mps 617 mmHg 79%
    06:00 +3°C° 0.1 mm 1 mps 618 mmHg 76%
    07:00 +4°C° 0.2 mm 1 mps 618 mmHg 73%
    08:00 +5°C° 0.2 mm 1 mps 619 mmHg 71%
    09:00 +7°C° 0.2 mm 1 mps 619 mmHg 68%
    10:00 +7°C° 0.4 mm 1 mps 619 mmHg 69%
    11:00 +7°C° 0.4 mm 2 mps 620 mmHg 69%
    12:00 +7°C° 0.4 mm 2 mps 620 mmHg 70%
    13:00 +7°C° 1.1 mm 2 mps 619 mmHg 75%
    14:00 +6°C° 1.1 mm 2 mps 619 mmHg 80%
    15:00 +6°C° 1.1 mm 2 mps 619 mmHg 85%
    16:00 +5°C° 1.2 mm 2 mps 619 mmHg 88%
    17:00 +5°C° 1.2 mm 2 mps 618 mmHg 91%
    18:00 +5°C° 1.2 mm 1 mps 618 mmHg 94%
    19:00 +4°C° 0.3 mm 1 mps 618 mmHg 95%
    20:00 +3°C° 0.3 mm 1 mps 618 mmHg 95%
    21:00 +2°C° 0.3 mm 1 mps 618 mmHg 96%
    22:00 +2°C° 0 mm 1 mps 618 mmHg 95%
    23:00 +1°C° 0 mm 1 mps 617 mmHg 95%

    3 May, Wednesday

    Time Temperature Precipitation Wind Pressure Humidity
    00:00 0°C° 0 mm 1 mps 617 mmHg 94%
    01:00 0°C° 0 mm 1 mps 616 mmHg 94%
    02:00 -1°C° 0 mm 1 mps 616 mmHg 94%
    03:00 -1°C° 0 mm 1 mps 616 mmHg 94%
    04:00 0°C° 0 mm 1 mps 616 mmHg 92%
    05:00 +1°C° 0 mm 1 mps 617 mmHg 90%
    06:00 +3°C° 0 mm 1 mps 618 mmHg 88%
    07:00 +4°C° 0 mm 1 mps 618 mmHg 84%
    08:00 +6°C° 0 mm 1 mps 619 mmHg 81%
    09:00 +7°C° 0 mm 1 mps 620 mmHg 77%
    10:00 +8°C° 0.2 mm 1 mps 620 mmHg 75%
    11:00 +8°C° 0.2 mm 1 mps 620 mmHg 74%
    12:00 +7°C° 0.2 mm 2 mps 619 mmHg 73%
    13:00 +8°C° 0.4 mm 2 mps 619 mmHg 72%
    14:00 +8°C° 0.4 mm 2 mps 619 mmHg 70%
    15:00 +8°C° 0.4 mm 2 mps 619 mmHg 69%
    16:00 +9°C° 0.2 mm 1 mps 619 mmHg 74%
    17:00 +8°C° 0.2 mm 1 mps 618 mmHg 78%
    18:00 +7°C° 0.2 mm 1 mps 618 mmHg 82%
    19:00 +5°C° 0 mm 1 mps 617 mmHg 86%
    20:00 +3°C° 0 mm 1 mps 617 mmHg 90%
    21:00 +1°C° 0 mm 1 mps 616 mmHg 95%
    22:00 +1°C° 0 mm 1 mps 616 mmHg 95%
    23:00 +1°C° 0 mm 1 mps 616 mmHg 95%

    4 May, Thursday

    Time Temperature Precipitation Wind Pressure Humidity
    00:00 +1°C° 0 mm 1 mps 615 mmHg 96%
    01:00 +1°C° 0 mm 1 mps 615 mmHg 95%
    02:00 0°C° 0 mm 0 mps 615 mmHg 95%
    03:00 0°C° 0 mm 0 mps 615 mmHg 95%
    04:00 +1°C° 0 mm 0 mps 615 mmHg 94%
    05:00 +2°C° 0 mm 0 mps 615 mmHg 92%
    06:00 +3°C° 0 mm 0 mps 616 mmHg 91%
    07:00 +6°C° 0 mm 1 mps 616 mmHg 81%
    08:00 +8°C° 0 mm 1 mps 617 mmHg 72%
    09:00 +10°C° 0 mm 1 mps 618 mmHg 62%
    10:00 +10°C° 0 mm 2 mps 618 mmHg 60%
    11:00 +12°C° 0 mm 2 mps 618 mmHg 58%
    12:00 +13°C° 0 mm 2 mps 618 mmHg 56%
    13:00 +12°C° 0.1 mm 2 mps 618 mmHg 59%
    14:00 +12°C° 0.1 mm 2 mps 617 mmHg 62%
    15:00 +12°C° 0.1 mm 2 mps 617 mmHg 65%
    16:00 +10°C° 0 mm 2 mps 617 mmHg 69%
    17:00 +10°C° 0 mm 1 mps 617 mmHg 74%
    18:00 +10°C° 0 mm 1 mps 616 mmHg 78%
    19:00 +8°C° 0 mm 1 mps 616 mmHg 83%
    20:00 +6°C° 0 mm 1 mps 615 mmHg 88%
    21:00 +4°C° 0 mm 1 mps 615 mmHg 93%
    22:00 +4°C° 0 mm 1 mps 615 mmHg 93%
    23:00 +4°C° 0 mm 1 mps 615 mmHg 93%

    5 May, Friday

    Time Temperature Precipitation Wind Pressure Humidity
    00:00 +3°C° 0 mm 2 mps 615 mmHg 92%
    01:00 +3°C° 0 mm 2 mps 615 mmHg 91%
    02:00 +3°C° 0 mm 2 mps 614 mmHg 89%
    03:00 +3°C° 0 mm 2 mps 614 mmHg 87%
    04:00 +4°C° 0 mm 2 mps 614 mmHg 84%
    05:00 +5°C° 0 mm 2 mps 615 mmHg 80%
    06:00 +6°C° 0 mm 2 mps 615 mmHg 77%
    07:00 +8°C° 0 mm 3 mps 616 mmHg 69%
    08:00 +10°C° 0 mm 3 mps 617 mmHg 61%
    09:00 +12°C° 0 mm 3 mps 618 mmHg 53%
    10:00 +13°C° 0 mm 3 mps 618 mmHg 50%
    11:00 +13°C° 0 mm 4 mps 619 mmHg 47%
    12:00 +14°C° 0 mm 4 mps 619 mmHg 45%
    13:00 +13°C° 0 mm 4 mps 619 mmHg 48%
    14:00 +13°C° 0 mm 4 mps 618 mmHg 52%
    15:00 +12°C° 0 mm 3 mps 618 mmHg 56%
    16:00 +11°C° 0.1 mm 3 mps 617 mmHg 61%
    17:00 +11°C° 0.1 mm 3 mps 617 mmHg 66%
    18:00 +10°C° 0.1 mm 3 mps 616 mmHg 71%
    19:00 +8°C° 0 mm 3 mps 616 mmHg 71%
    20:00 +7°C° 0 mm 3 mps 616 mmHg 71%
    21:00 +6°C° 0 mm 2 mps 615 mmHg 71%
    22:00 +6°C° 0 mm 2 mps 615 mmHg 72%
    23:00 +6°C° 0 mm 2 mps 615 mmHg 73%
    Show more